Year,Month,Day,Hour,Minute,Value (Times are PST for temperature in C)
2012,10,05,00,00,4.30
2012,10,05,00,01,4.30
2012,10,05,00,02,4.30
2012,10,05,00,03,4.30
2012,10,05,00,04,4.30
2012,10,05,00,05,4.20
2012,10,05,00,06,4.20
2012,10,05,00,07,4.20
2012,10,05,00,08,4.20
2012,10,05,00,09,4.20
2012,10,05,00,10,4.20
2012,10,05,00,11,4.20
2012,10,05,00,12,4.20
2012,10,05,00,13,4.20
2012,10,05,00,14,4.20
2012,10,05,00,15,4.10
2012,10,05,00,16,4.10
2012,10,05,00,17,4.10
2012,10,05,00,18,4.10
2012,10,05,00,19,4.10
2012,10,05,00,20,4.10
2012,10,05,00,21,4.10
2012,10,05,00,22,4.10
2012,10,05,00,23,4.00
2012,10,05,00,24,4.00
2012,10,05,00,25,4.00
2012,10,05,00,26,4.00
2012,10,05,00,27,4.00
2012,10,05,00,28,4.00
2012,10,05,00,29,3.90
2012,10,05,00,30,3.90
2012,10,05,00,31,3.90
2012,10,05,00,32,3.90
2012,10,05,00,33,3.90
2012,10,05,00,34,3.90
2012,10,05,00,35,3.90
2012,10,05,00,36,3.90
2012,10,05,00,37,3.90
2012,10,05,00,38,3.90
2012,10,05,00,39,3.90
2012,10,05,00,40,3.90
2012,10,05,00,41,3.90
2012,10,05,00,42,3.90
2012,10,05,00,43,3.80
2012,10,05,00,44,3.80
2012,10,05,00,45,3.80
2012,10,05,00,46,3.80
2012,10,05,00,47,3.80
2012,10,05,00,48,3.80
2012,10,05,00,49,3.80
2012,10,05,00,50,3.70
2012,10,05,00,51,3.70
2012,10,05,00,52,3.70
2012,10,05,00,53,3.70
2012,10,05,00,54,3.70
2012,10,05,00,55,3.70
2012,10,05,00,56,3.70
2012,10,05,00,57,3.70
2012,10,05,00,58,3.70
2012,10,05,00,59,3.60
2012,10,05,01,00,3.60
2012,10,05,01,01,3.60
2012,10,05,01,02,3.60
2012,10,05,01,03,3.60
2012,10,05,01,04,3.60
2012,10,05,01,05,3.60
2012,10,05,01,06,3.50
2012,10,05,01,07,3.50
2012,10,05,01,08,3.50
2012,10,05,01,09,3.50
2012,10,05,01,10,3.50
2012,10,05,01,11,3.50
2012,10,05,01,12,3.50
2012,10,05,01,13,3.50
2012,10,05,01,14,3.50
2012,10,05,01,15,3.50
2012,10,05,01,16,3.40
2012,10,05,01,17,3.40
2012,10,05,01,18,3.40
2012,10,05,01,19,3.40
2012,10,05,01,20,3.40
2012,10,05,01,21,3.40
2012,10,05,01,22,3.40
2012,10,05,01,23,3.40
2012,10,05,01,24,3.40
2012,10,05,01,25,3.40
2012,10,05,01,26,3.40
2012,10,05,01,27,3.40
2012,10,05,01,28,3.40
2012,10,05,01,29,3.40
2012,10,05,01,30,3.30
2012,10,05,01,31,3.30
2012,10,05,01,32,3.30
2012,10,05,01,33,3.30
2012,10,05,01,34,3.30
2012,10,05,01,35,3.30
2012,10,05,01,36,3.30
2012,10,05,01,37,3.30
2012,10,05,01,38,3.30
2012,10,05,01,39,3.30
2012,10,05,01,40,3.30
2012,10,05,01,41,3.30
2012,10,05,01,42,3.30
2012,10,05,01,43,3.30
2012,10,05,01,44,3.30
2012,10,05,01,45,3.30
2012,10,05,01,46,3.20
2012,10,05,01,47,3.20
2012,10,05,01,48,3.20
2012,10,05,01,49,3.20
2012,10,05,01,50,3.20
2012,10,05,01,51,3.20
2012,10,05,01,52,3.20
2012,10,05,01,53,3.20
2012,10,05,01,54,3.20
2012,10,05,01,55,3.20
2012,10,05,01,56,3.10
2012,10,05,01,57,3.10
2012,10,05,01,58,3.10
2012,10,05,01,59,3.10
2012,10,05,02,00,3.10
2012,10,05,02,01,3.00
2012,10,05,02,02,3.00
2012,10,05,02,03,3.00
2012,10,05,02,04,3.00
2012,10,05,02,05,3.00
2012,10,05,02,06,3.00
2012,10,05,02,07,3.00
2012,10,05,02,08,2.90
2012,10,05,02,09,2.90
2012,10,05,02,10,2.90
2012,10,05,02,11,2.90
2012,10,05,02,12,2.90
2012,10,05,02,13,2.90
2012,10,05,02,14,2.90
2012,10,05,02,15,2.90
2012,10,05,02,16,2.90
2012,10,05,02,17,2.90
2012,10,05,02,18,2.90
2012,10,05,02,19,2.80
2012,10,05,02,20,2.80
2012,10,05,02,21,2.80
2012,10,05,02,22,2.80
2012,10,05,02,23,2.80
2012,10,05,02,24,2.80
2012,10,05,02,25,2.80
2012,10,05,02,26,2.80
2012,10,05,02,27,2.80
2012,10,05,02,28,2.80
2012,10,05,02,29,2.80
2012,10,05,02,30,2.80
2012,10,05,02,31,2.80
2012,10,05,02,32,2.80
2012,10,05,02,33,2.80
2012,10,05,02,34,2.80
2012,10,05,02,35,2.80
2012,10,05,02,36,2.70
2012,10,05,02,37,2.70
2012,10,05,02,38,2.70
2012,10,05,02,39,2.70
2012,10,05,02,40,2.70
2012,10,05,02,41,2.70
2012,10,05,02,42,2.70
2012,10,05,02,43,2.70
2012,10,05,02,44,2.70
2012,10,05,02,45,2.70
2012,10,05,02,46,2.70
2012,10,05,02,47,2.70
2012,10,05,02,48,2.70
2012,10,05,02,49,2.70
2012,10,05,02,50,2.70
2012,10,05,02,51,2.70
2012,10,05,02,52,2.70
2012,10,05,02,53,2.70
2012,10,05,02,54,2.70
2012,10,05,02,55,2.60
2012,10,05,02,56,2.60
2012,10,05,02,57,2.60
2012,10,05,02,58,2.60
2012,10,05,02,59,2.60
2012,10,05,03,00,2.60
2012,10,05,03,01,2.60
2012,10,05,03,02,2.70
2012,10,05,03,03,2.70
2012,10,05,03,04,2.70
2012,10,05,03,05,2.70
2012,10,05,03,06,2.70
2012,10,05,03,07,2.70
2012,10,05,03,08,2.70
2012,10,05,03,09,2.70
2012,10,05,03,10,2.70
2012,10,05,03,11,2.70
2012,10,05,03,12,2.70
2012,10,05,03,13,2.70
2012,10,05,03,14,2.70
2012,10,05,03,15,2.70
2012,10,05,03,16,2.70
2012,10,05,03,17,2.70
2012,10,05,03,18,2.70
2012,10,05,03,19,2.60
2012,10,05,03,20,2.60
2012,10,05,03,21,2.60
2012,10,05,03,22,2.60
2012,10,05,03,23,2.60
2012,10,05,03,24,2.60
2012,10,05,03,25,2.60
2012,10,05,03,26,2.60
2012,10,05,03,27,2.60
2012,10,05,03,28,2.60
2012,10,05,03,29,2.60
2012,10,05,03,30,2.60
2012,10,05,03,31,2.60
2012,10,05,03,32,2.60
2012,10,05,03,33,2.60
2012,10,05,03,34,2.50
2012,10,05,03,35,2.50
2012,10,05,03,36,2.50
2012,10,05,03,37,2.50
2012,10,05,03,38,2.50
2012,10,05,03,39,2.50
2012,10,05,03,40,2.50
2012,10,05,03,41,2.50
2012,10,05,03,42,2.50
2012,10,05,03,43,2.50
2012,10,05,03,44,2.50
2012,10,05,03,45,2.50
2012,10,05,03,46,2.50
2012,10,05,03,47,2.40
2012,10,05,03,48,2.40
2012,10,05,03,49,2.40
2012,10,05,03,50,2.40
2012,10,05,03,51,2.40
2012,10,05,03,52,2.40
2012,10,05,03,53,2.40
2012,10,05,03,54,2.30
2012,10,05,03,55,2.30
2012,10,05,03,56,2.30
2012,10,05,03,57,2.30
2012,10,05,03,58,2.30
2012,10,05,03,59,2.30
2012,10,05,04,00,2.30
2012,10,05,04,01,2.30
2012,10,05,04,02,2.30
2012,10,05,04,03,2.20
2012,10,05,04,04,2.20
2012,10,05,04,05,2.20
2012,10,05,04,06,2.20
2012,10,05,04,07,2.20
2012,10,05,04,08,2.20
2012,10,05,04,09,2.20
2012,10,05,04,10,2.20
2012,10,05,04,11,2.20
2012,10,05,04,12,2.20
2012,10,05,04,13,2.20
2012,10,05,04,14,2.10
2012,10,05,04,15,2.10
2012,10,05,04,16,2.10
2012,10,05,04,17,2.10
2012,10,05,04,18,2.10
2012,10,05,04,19,2.10
2012,10,05,04,20,2.10
2012,10,05,04,21,2.10
2012,10,05,04,22,2.10
2012,10,05,04,23,2.00
2012,10,05,04,24,2.00
2012,10,05,04,25,2.00
2012,10,05,04,26,2.00
2012,10,05,04,27,1.90
2012,10,05,04,28,1.90
2012,10,05,04,29,1.90
2012,10,05,04,30,1.90
2012,10,05,04,31,1.90
2012,10,05,04,32,1.80
2012,10,05,04,33,1.80
2012,10,05,04,34,1.80
2012,10,05,04,35,1.80
2012,10,05,04,36,1.80
2012,10,05,04,37,1.80
2012,10,05,04,38,1.80
2012,10,05,04,39,1.80
2012,10,05,04,40,1.70
2012,10,05,04,41,1.70
2012,10,05,04,42,1.70
2012,10,05,04,43,1.70
2012,10,05,04,44,1.70
2012,10,05,04,45,1.70
2012,10,05,04,46,1.70
2012,10,05,04,47,1.70
2012,10,05,04,48,1.70
2012,10,05,04,49,1.60
2012,10,05,04,50,1.60
2012,10,05,04,51,1.60
2012,10,05,04,52,1.60
2012,10,05,04,53,1.50
2012,10,05,04,54,1.50
2012,10,05,04,55,1.50
2012,10,05,04,56,1.50
2012,10,05,04,57,1.50
2012,10,05,04,58,1.50
2012,10,05,04,59,1.50
2012,10,05,05,00,1.50
2012,10,05,05,01,1.50
2012,10,05,05,02,1.50
2012,10,05,05,03,1.40
2012,10,05,05,04,1.40
2012,10,05,05,05,1.40
2012,10,05,05,06,1.50
2012,10,05,05,07,1.50
2012,10,05,05,08,1.50
2012,10,05,05,09,1.50
2012,10,05,05,10,1.50
2012,10,05,05,11,1.40
2012,10,05,05,12,1.40
2012,10,05,05,13,1.40
2012,10,05,05,14,1.40
2012,10,05,05,15,1.40
2012,10,05,05,16,1.40
2012,10,05,05,17,1.40
2012,10,05,05,18,1.30
2012,10,05,05,19,1.30
2012,10,05,05,20,1.30
2012,10,05,05,21,1.30
2012,10,05,05,22,1.30
2012,10,05,05,23,1.30
2012,10,05,05,24,1.30
2012,10,05,05,25,1.30
2012,10,05,05,26,1.30
2012,10,05,05,27,1.30
2012,10,05,05,28,1.30
2012,10,05,05,29,1.30
2012,10,05,05,30,1.30
2012,10,05,05,31,1.30
2012,10,05,05,32,1.30
2012,10,05,05,33,1.30
2012,10,05,05,34,1.30
2012,10,05,05,35,1.30
2012,10,05,05,36,1.30
2012,10,05,05,37,1.30
2012,10,05,05,38,1.30
2012,10,05,05,39,1.30
2012,10,05,05,40,1.30
2012,10,05,05,41,1.30
2012,10,05,05,42,1.30
2012,10,05,05,43,1.30
2012,10,05,05,44,1.30
2012,10,05,05,45,1.30
2012,10,05,05,46,1.30
2012,10,05,05,47,1.30
2012,10,05,05,48,1.30
2012,10,05,05,49,1.30
2012,10,05,05,50,1.30
2012,10,05,05,51,1.30
2012,10,05,05,52,1.30
2012,10,05,05,53,1.30
2012,10,05,05,54,1.30
2012,10,05,05,55,1.20
2012,10,05,05,56,1.20
2012,10,05,05,57,1.20
2012,10,05,05,58,1.20
2012,10,05,05,59,1.20
2012,10,05,06,00,1.20
2012,10,05,06,01,1.20
2012,10,05,06,02,1.20
2012,10,05,06,03,1.20
2012,10,05,06,04,1.20
2012,10,05,06,05,1.10
2012,10,05,06,06,1.10
2012,10,05,06,07,1.10
2012,10,05,06,08,1.10
2012,10,05,06,09,1.10
2012,10,05,06,10,1.10
2012,10,05,06,11,1.10
2012,10,05,06,12,1.10
2012,10,05,06,13,1.10
2012,10,05,06,14,1.10
2012,10,05,06,15,1.10
2012,10,05,06,16,1.10
2012,10,05,06,17,1.10
2012,10,05,06,18,1.10
2012,10,05,06,19,1.10
2012,10,05,06,20,1.10
2012,10,05,06,21,1.10
2012,10,05,06,22,1.00
2012,10,05,06,23,1.00
2012,10,05,06,24,1.00
2012,10,05,06,25,1.00
2012,10,05,06,26,1.00
2012,10,05,06,27,1.00
2012,10,05,06,28,1.00
2012,10,05,06,29,1.00
2012,10,05,06,30,1.00
2012,10,05,06,31,1.00
2012,10,05,06,32,1.00
2012,10,05,06,33,1.00
2012,10,05,06,34,0.90
2012,10,05,06,35,0.90
2012,10,05,06,36,0.90
2012,10,05,06,37,0.90
2012,10,05,06,38,0.90
2012,10,05,06,39,0.90
2012,10,05,06,40,0.90
2012,10,05,06,41,0.90
2012,10,05,06,42,0.90
2012,10,05,06,43,0.90
2012,10,05,06,44,0.80
2012,10,05,06,45,0.80
2012,10,05,06,46,0.80
2012,10,05,06,47,0.80
2012,10,05,06,48,0.80
2012,10,05,06,49,0.80
2012,10,05,06,50,0.80
2012,10,05,06,51,0.80
2012,10,05,06,52,0.80
2012,10,05,06,53,0.80
2012,10,05,06,54,0.80
2012,10,05,06,55,0.80
2012,10,05,06,56,0.80
2012,10,05,06,57,0.80
2012,10,05,06,58,0.80
2012,10,05,06,59,0.80
2012,10,05,07,00,0.80
2012,10,05,07,01,0.80
2012,10,05,07,02,0.80
2012,10,05,07,03,0.80
2012,10,05,07,04,0.80
2012,10,05,07,05,0.80
2012,10,05,07,06,0.80
2012,10,05,07,07,0.80
2012,10,05,07,08,0.80
2012,10,05,07,09,0.80
2012,10,05,07,10,0.80
2012,10,05,07,11,0.80
2012,10,05,07,12,0.80
2012,10,05,07,13,0.80
2012,10,05,07,14,0.80
2012,10,05,07,15,0.80
2012,10,05,07,16,0.80
2012,10,05,07,17,0.80
2012,10,05,07,18,0.80
2012,10,05,07,19,0.80
2012,10,05,07,20,0.80
2012,10,05,07,21,0.80
2012,10,05,07,22,0.80
2012,10,05,07,23,0.80
2012,10,05,07,24,0.80
2012,10,05,07,25,0.80
2012,10,05,07,26,0.80
2012,10,05,07,27,0.80
2012,10,05,07,28,0.80
2012,10,05,07,29,0.80
2012,10,05,07,30,0.80
2012,10,05,07,31,0.80
2012,10,05,07,32,0.80
2012,10,05,07,33,0.80
2012,10,05,07,34,0.80
2012,10,05,07,35,0.80
2012,10,05,07,36,0.80
2012,10,05,07,37,0.80
2012,10,05,07,38,0.80
2012,10,05,07,39,0.80
2012,10,05,07,40,0.80
2012,10,05,07,41,0.80
2012,10,05,07,42,0.80
2012,10,05,07,43,0.80
2012,10,05,07,44,0.80
2012,10,05,07,45,0.80
2012,10,05,07,46,0.80
2012,10,05,07,47,0.80
2012,10,05,07,48,0.80
2012,10,05,07,49,0.80
2012,10,05,07,50,0.80
2012,10,05,07,51,0.80
2012,10,05,07,52,0.80
2012,10,05,07,53,0.80
2012,10,05,07,54,0.80
2012,10,05,07,55,0.80
2012,10,05,07,56,0.80
2012,10,05,07,57,0.80
2012,10,05,07,58,0.80
2012,10,05,07,59,0.80
2012,10,05,08,00,0.80
2012,10,05,08,01,0.80
2012,10,05,08,02,0.80
2012,10,05,08,03,0.80
2012,10,05,08,04,0.90
2012,10,05,08,05,0.90
2012,10,05,08,06,0.90
2012,10,05,08,07,0.90
2012,10,05,08,08,0.90
2012,10,05,08,09,1.00
2012,10,05,08,10,1.00
2012,10,05,08,11,1.00
2012,10,05,08,12,1.00
2012,10,05,08,13,1.00
2012,10,05,08,14,1.10
2012,10,05,08,15,1.10
2012,10,05,08,16,1.10
2012,10,05,08,17,1.10
2012,10,05,08,18,1.20
2012,10,05,08,19,1.20
2012,10,05,08,20,1.20
2012,10,05,08,21,1.20
2012,10,05,08,22,1.20
2012,10,05,08,23,1.30
2012,10,05,08,24,1.30
2012,10,05,08,25,1.30
2012,10,05,08,26,1.30
2012,10,05,08,27,1.30
2012,10,05,08,28,1.30
2012,10,05,08,29,1.30
2012,10,05,08,30,1.30
2012,10,05,08,31,1.30
2012,10,05,08,32,1.40
2012,10,05,08,33,1.50
2012,10,05,08,34,1.60
2012,10,05,08,35,1.60
2012,10,05,08,36,1.60
2012,10,05,08,37,1.60
2012,10,05,08,38,1.70
2012,10,05,08,39,1.70
2012,10,05,08,40,1.80
2012,10,05,08,41,1.80
2012,10,05,08,42,1.80
2012,10,05,08,43,1.90
2012,10,05,08,44,1.90
2012,10,05,08,45,2.00
2012,10,05,08,46,2.00
2012,10,05,08,47,2.10
2012,10,05,08,48,2.10
2012,10,05,08,49,2.20
2012,10,05,08,50,2.20
2012,10,05,08,51,2.30
2012,10,05,08,52,2.40
2012,10,05,08,53,2.50
2012,10,05,08,54,2.50
2012,10,05,08,55,2.60
2012,10,05,08,56,2.70
2012,10,05,08,57,2.80
2012,10,05,08,58,2.90
2012,10,05,08,59,3.00
2012,10,05,09,00,3.10
2012,10,05,09,01,3.20
2012,10,05,09,02,3.30
2012,10,05,09,03,3.30
2012,10,05,09,04,3.40
2012,10,05,09,05,3.50
2012,10,05,09,06,3.60
2012,10,05,09,07,3.70
2012,10,05,09,08,3.80
2012,10,05,09,09,3.80
2012,10,05,09,10,3.90
2012,10,05,09,11,4.00
2012,10,05,09,12,4.10
2012,10,05,09,13,4.20
2012,10,05,09,14,4.30
2012,10,05,09,15,4.40
2012,10,05,09,16,4.50
2012,10,05,09,17,4.60
2012,10,05,09,18,4.70
2012,10,05,09,19,4.70
2012,10,05,09,20,4.80
2012,10,05,09,21,5.00
2012,10,05,09,22,5.10
2012,10,05,09,23,5.30
2012,10,05,09,24,5.40
2012,10,05,09,25,5.60
2012,10,05,09,26,5.70
2012,10,05,09,27,5.90
2012,10,05,09,28,6.00
2012,10,05,09,29,6.20
2012,10,05,09,30,6.30
2012,10,05,09,31,6.40
2012,10,05,09,32,6.60
2012,10,05,09,33,6.70
2012,10,05,09,34,6.80
2012,10,05,09,35,6.90
2012,10,05,09,36,7.00
2012,10,05,09,37,7.20
2012,10,05,09,38,7.20
2012,10,05,09,39,7.30
2012,10,05,09,40,7.40
2012,10,05,09,41,7.50
2012,10,05,09,42,7.60
2012,10,05,09,43,7.70
2012,10,05,09,44,7.80
2012,10,05,09,45,7.90
2012,10,05,09,46,8.00
2012,10,05,09,47,8.00
2012,10,05,09,48,8.20
2012,10,05,09,49,8.30
2012,10,05,09,50,8.40
2012,10,05,09,51,8.50
2012,10,05,09,52,8.60
2012,10,05,09,53,8.60
2012,10,05,09,54,8.80
2012,10,05,09,55,8.90
2012,10,05,09,56,9.00
2012,10,05,09,57,9.10
2012,10,05,09,58,9.20
2012,10,05,09,59,9.30
2012,10,05,10,00,9.40
2012,10,05,10,01,9.50
2012,10,05,10,02,9.70
2012,10,05,10,03,9.80
2012,10,05,10,04,9.90
2012,10,05,10,05,10.00
2012,10,05,10,06,10.10
2012,10,05,10,07,10.20
2012,10,05,10,08,10.30
2012,10,05,10,09,10.40
2012,10,05,10,10,10.50
2012,10,05,10,11,10.60
2012,10,05,10,12,10.70
2012,10,05,10,13,10.80
2012,10,05,10,14,10.90
2012,10,05,10,15,11.00
2012,10,05,10,16,11.10
2012,10,05,10,17,11.20
2012,10,05,10,18,11.30
2012,10,05,10,19,11.40
2012,10,05,10,20,11.50
2012,10,05,10,21,11.60
2012,10,05,10,22,11.70
2012,10,05,10,23,11.70
2012,10,05,10,24,11.80
2012,10,05,10,25,12.00
2012,10,05,10,26,12.10
2012,10,05,10,27,12.10
2012,10,05,10,28,12.20
2012,10,05,10,29,12.20
2012,10,05,10,30,12.30
2012,10,05,10,31,12.40
2012,10,05,10,32,12.50
2012,10,05,10,33,12.60
2012,10,05,10,34,12.70
2012,10,05,10,35,12.80
2012,10,05,10,36,12.90
2012,10,05,10,37,13.00
2012,10,05,10,38,13.10
2012,10,05,10,39,13.20
2012,10,05,10,40,13.30
2012,10,05,10,41,13.30
2012,10,05,10,42,13.40
2012,10,05,10,43,13.50
2012,10,05,10,44,13.60
2012,10,05,10,45,13.70
2012,10,05,10,46,13.80
2012,10,05,10,47,13.90
2012,10,05,10,48,14.00
2012,10,05,10,49,14.10
2012,10,05,10,50,14.20
2012,10,05,10,51,14.30
2012,10,05,10,52,14.30
2012,10,05,10,53,14.40
2012,10,05,10,54,14.50
2012,10,05,10,55,14.60
2012,10,05,10,56,14.60
2012,10,05,10,57,14.70
2012,10,05,10,58,14.80
2012,10,05,10,59,14.90
2012,10,05,11,00,15.00
2012,10,05,11,01,15.00
2012,10,05,11,02,15.00
2012,10,05,11,03,15.00
2012,10,05,11,04,15.10
2012,10,05,11,05,15.30
2012,10,05,11,06,15.30
2012,10,05,11,07,15.40
2012,10,05,11,08,15.50
2012,10,05,11,09,15.50
2012,10,05,11,10,15.60
2012,10,05,11,11,15.70
2012,10,05,11,12,15.70
2012,10,05,11,13,15.80
2012,10,05,11,14,15.80
2012,10,05,11,15,15.90
2012,10,05,11,16,15.90
2012,10,05,11,17,16.00
2012,10,05,11,18,16.00
2012,10,05,11,19,16.10
2012,10,05,11,20,16.00
2012,10,05,11,21,16.00
2012,10,05,11,22,16.00
2012,10,05,11,23,15.90
2012,10,05,11,24,15.90
2012,10,05,11,25,15.90
2012,10,05,11,26,16.00
2012,10,05,11,27,16.10
2012,10,05,11,28,16.10
2012,10,05,11,29,16.20
2012,10,05,11,30,16.30
2012,10,05,11,31,16.40
2012,10,05,11,32,16.50
2012,10,05,11,33,16.50
2012,10,05,11,34,16.60
2012,10,05,11,35,16.70
2012,10,05,11,36,16.70
2012,10,05,11,37,16.70
2012,10,05,11,38,16.60
2012,10,05,11,39,16.60
2012,10,05,11,40,16.60
2012,10,05,11,41,16.60
2012,10,05,11,42,16.60
2012,10,05,11,43,16.60
2012,10,05,11,44,16.70
2012,10,05,11,45,16.70
2012,10,05,11,46,16.80
2012,10,05,11,47,16.80
2012,10,05,11,48,16.90
2012,10,05,11,49,16.90
2012,10,05,11,50,16.90
2012,10,05,11,51,16.90
2012,10,05,11,52,16.90
2012,10,05,11,53,17.00
2012,10,05,11,54,17.10
2012,10,05,11,55,17.10
2012,10,05,11,56,17.20
2012,10,05,11,57,17.20
2012,10,05,11,58,17.20
2012,10,05,11,59,17.20
2012,10,05,12,00,17.30
2012,10,05,12,01,17.30
2012,10,05,12,02,17.30
2012,10,05,12,03,17.40
2012,10,05,12,04,17.40
2012,10,05,12,05,17.50
2012,10,05,12,06,17.60
2012,10,05,12,07,17.60
2012,10,05,12,08,17.70
2012,10,05,12,09,17.60
2012,10,05,12,10,17.70
2012,10,05,12,11,17.70
2012,10,05,12,12,17.70
2012,10,05,12,13,17.70
2012,10,05,12,14,17.60
2012,10,05,12,15,17.60
2012,10,05,12,16,17.60
2012,10,05,12,17,17.70
2012,10,05,12,18,17.70
2012,10,05,12,19,17.80
2012,10,05,12,20,17.80
2012,10,05,12,21,17.90
2012,10,05,12,22,17.90
2012,10,05,12,23,17.80
2012,10,05,12,24,17.80
2012,10,05,12,25,17.80
2012,10,05,12,26,17.80
2012,10,05,12,27,17.80
2012,10,05,12,28,17.80
2012,10,05,12,29,17.90
2012,10,05,12,30,17.90
2012,10,05,12,31,17.90
2012,10,05,12,32,17.90
2012,10,05,12,33,17.90
2012,10,05,12,34,17.90
2012,10,05,12,35,17.90
2012,10,05,12,36,17.90
2012,10,05,12,37,17.90
2012,10,05,12,38,17.90
2012,10,05,12,39,18.00
2012,10,05,12,40,18.00
2012,10,05,12,41,18.10
2012,10,05,12,42,18.10
2012,10,05,12,43,18.00
2012,10,05,12,44,18.00
2012,10,05,12,45,18.00
2012,10,05,12,46,18.00
2012,10,05,12,47,18.00
2012,10,05,12,48,18.00
2012,10,05,12,49,18.10
2012,10,05,12,50,18.10
2012,10,05,12,51,18.10
2012,10,05,12,52,18.10
2012,10,05,12,53,18.10
2012,10,05,12,54,18.20
2012,10,05,12,55,18.20
2012,10,05,12,56,18.20
2012,10,05,12,57,18.20
2012,10,05,12,58,18.20
2012,10,05,12,59,18.20
2012,10,05,13,00,18.20
2012,10,05,13,01,18.20
2012,10,05,13,02,18.20
2012,10,05,13,03,18.30
2012,10,05,13,04,18.30
2012,10,05,13,05,18.40
2012,10,05,13,06,18.40
2012,10,05,13,07,18.40
2012,10,05,13,08,18.40
2012,10,05,13,09,18.30
2012,10,05,13,10,18.20
2012,10,05,13,11,18.20
2012,10,05,13,12,18.20
2012,10,05,13,13,18.20
2012,10,05,13,14,18.20
2012,10,05,13,15,18.20
2012,10,05,13,16,18.20
2012,10,05,13,17,18.20
2012,10,05,13,18,18.20
2012,10,05,13,19,18.10
2012,10,05,13,20,18.10
2012,10,05,13,21,18.10
2012,10,05,13,22,18.20
2012,10,05,13,23,18.20
2012,10,05,13,24,18.20
2012,10,05,13,25,18.30
2012,10,05,13,26,18.30
2012,10,05,13,27,18.40
2012,10,05,13,28,18.40
2012,10,05,13,29,18.40
2012,10,05,13,30,18.50
2012,10,05,13,31,18.50
2012,10,05,13,32,18.50
2012,10,05,13,33,18.50
2012,10,05,13,34,18.60
2012,10,05,13,35,18.60
2012,10,05,13,36,18.50
2012,10,05,13,37,18.40
2012,10,05,13,38,18.30
2012,10,05,13,39,18.20
2012,10,05,13,40,18.20
2012,10,05,13,41,18.20
2012,10,05,13,42,18.20
2012,10,05,13,43,18.30
2012,10,05,13,44,18.30
2012,10,05,13,45,18.30
2012,10,05,13,46,18.40
2012,10,05,13,47,18.50
2012,10,05,13,48,18.50
2012,10,05,13,49,18.60
2012,10,05,13,50,18.60
2012,10,05,13,51,18.60
2012,10,05,13,52,18.70
2012,10,05,13,53,18.70
2012,10,05,13,54,18.70
2012,10,05,13,55,18.70
2012,10,05,13,56,18.80
2012,10,05,13,57,18.80
2012,10,05,13,58,18.80
2012,10,05,13,59,18.70
2012,10,05,14,00,18.80
2012,10,05,14,01,18.80
2012,10,05,14,02,18.80
2012,10,05,14,03,18.90
2012,10,05,14,04,18.90
2012,10,05,14,05,18.90
2012,10,05,14,06,18.90
2012,10,05,14,07,18.90
2012,10,05,14,08,18.90
2012,10,05,14,09,18.80
2012,10,05,14,10,18.80
2012,10,05,14,11,18.70
2012,10,05,14,12,18.70
2012,10,05,14,13,18.70
2012,10,05,14,14,18.70
2012,10,05,14,15,18.80
2012,10,05,14,16,18.80
2012,10,05,14,17,18.80
2012,10,05,14,18,18.90
2012,10,05,14,19,18.90
2012,10,05,14,20,18.90
2012,10,05,14,21,19.00
2012,10,05,14,22,19.10
2012,10,05,14,23,19.00
2012,10,05,14,24,19.00
2012,10,05,14,25,19.00
2012,10,05,14,26,19.10
2012,10,05,14,27,19.10
2012,10,05,14,28,19.10
2012,10,05,14,29,19.10
2012,10,05,14,30,19.10
2012,10,05,14,31,19.10
2012,10,05,14,32,19.10
2012,10,05,14,33,19.10
2012,10,05,14,34,19.20
2012,10,05,14,35,19.20
2012,10,05,14,36,19.20
2012,10,05,14,37,19.30
2012,10,05,14,38,19.40
2012,10,05,14,39,19.40
2012,10,05,14,40,19.20
2012,10,05,14,41,19.20
2012,10,05,14,42,19.20
2012,10,05,14,43,19.20
2012,10,05,14,44,19.20
2012,10,05,14,45,19.20
2012,10,05,14,46,19.30
2012,10,05,14,47,19.30
2012,10,05,14,48,19.30
2012,10,05,14,49,19.30
2012,10,05,14,50,19.30
2012,10,05,14,51,19.30
2012,10,05,14,52,19.30
2012,10,05,14,53,19.30
2012,10,05,14,54,19.30
2012,10,05,14,55,19.40
2012,10,05,14,56,19.40
2012,10,05,14,57,19.40
2012,10,05,14,58,19.40
2012,10,05,14,59,19.40
2012,10,05,15,00,19.40
2012,10,05,15,01,19.40
2012,10,05,15,02,19.40
2012,10,05,15,03,19.40
2012,10,05,15,04,19.50
2012,10,05,15,05,19.50
2012,10,05,15,06,19.50
2012,10,05,15,07,19.60
2012,10,05,15,08,19.50
2012,10,05,15,09,19.50
2012,10,05,15,10,19.40
2012,10,05,15,11,19.40
2012,10,05,15,12,19.40
2012,10,05,15,13,19.40
2012,10,05,15,14,19.40
2012,10,05,15,15,19.40
2012,10,05,15,16,19.40
2012,10,05,15,17,19.40
2012,10,05,15,18,19.50
2012,10,05,15,19,19.40
2012,10,05,15,20,19.50
2012,10,05,15,21,19.50
2012,10,05,15,22,19.60
2012,10,05,15,23,19.60
2012,10,05,15,24,19.60
2012,10,05,15,25,19.60
2012,10,05,15,26,19.60
2012,10,05,15,27,19.60
2012,10,05,15,28,19.60
2012,10,05,15,29,19.60
2012,10,05,15,30,19.60
2012,10,05,15,31,19.60
2012,10,05,15,32,19.50
2012,10,05,15,33,19.50
2012,10,05,15,34,19.60
2012,10,05,15,35,19.60
2012,10,05,15,36,19.60
2012,10,05,15,37,19.60
2012,10,05,15,38,19.60
2012,10,05,15,39,19.50
2012,10,05,15,40,19.50
2012,10,05,15,41,19.50
2012,10,05,15,42,19.50
2012,10,05,15,43,19.40
2012,10,05,15,44,19.40
2012,10,05,15,45,19.40
2012,10,05,15,46,19.40
2012,10,05,15,47,19.40
2012,10,05,15,48,19.40
2012,10,05,15,49,19.40
2012,10,05,15,50,19.40
2012,10,05,15,51,19.40
2012,10,05,15,52,19.40
2012,10,05,15,53,19.40
2012,10,05,15,54,19.50
2012,10,05,15,55,19.50
2012,10,05,15,56,19.50
2012,10,05,15,57,19.50
2012,10,05,15,58,19.50
2012,10,05,15,59,19.50
2012,10,05,16,00,19.50
2012,10,05,16,01,19.50
2012,10,05,16,02,19.40
2012,10,05,16,03,19.50
2012,10,05,16,04,19.50
2012,10,05,16,05,19.50
2012,10,05,16,06,19.50
2012,10,05,16,07,19.50
2012,10,05,16,08,19.50
2012,10,05,16,09,19.50
2012,10,05,16,10,19.40
2012,10,05,16,11,19.40
2012,10,05,16,12,19.40
2012,10,05,16,13,19.40
2012,10,05,16,14,19.40
2012,10,05,16,15,19.40
2012,10,05,16,16,19.40
2012,10,05,16,17,19.40
2012,10,05,16,18,19.40
2012,10,05,16,19,19.40
2012,10,05,16,20,19.40
2012,10,05,16,21,19.40
2012,10,05,16,22,19.40
2012,10,05,16,23,19.40
2012,10,05,16,24,19.40
2012,10,05,16,25,19.40
2012,10,05,16,26,19.30
2012,10,05,16,27,19.30
2012,10,05,16,28,19.30
2012,10,05,16,29,19.30
2012,10,05,16,30,19.30
2012,10,05,16,31,19.20
2012,10,05,16,32,19.30
2012,10,05,16,33,19.30
2012,10,05,16,34,19.30
2012,10,05,16,35,19.30
2012,10,05,16,36,19.30
2012,10,05,16,37,19.30
2012,10,05,16,38,19.30
2012,10,05,16,39,19.30
2012,10,05,16,40,19.20
2012,10,05,16,41,19.20
2012,10,05,16,42,19.20
2012,10,05,16,43,19.20
2012,10,05,16,44,19.20
2012,10,05,16,45,19.20
2012,10,05,16,46,19.20
2012,10,05,16,47,19.20
2012,10,05,16,48,19.20
2012,10,05,16,49,19.20
2012,10,05,16,50,19.20
2012,10,05,16,51,19.10
2012,10,05,16,52,19.10
2012,10,05,16,53,19.10
2012,10,05,16,54,19.10
2012,10,05,16,55,19.10
2012,10,05,16,56,19.00
2012,10,05,16,57,19.00
2012,10,05,16,58,19.00
2012,10,05,16,59,19.00
2012,10,05,17,00,19.00
2012,10,05,17,01,19.00
2012,10,05,17,02,18.90
2012,10,05,17,03,18.90
2012,10,05,17,04,18.90
2012,10,05,17,05,18.80
2012,10,05,17,06,18.80
2012,10,05,17,07,18.80
2012,10,05,17,08,18.80
2012,10,05,17,09,18.70
2012,10,05,17,10,18.70
2012,10,05,17,11,18.70
2012,10,05,17,12,18.70
2012,10,05,17,13,18.70
2012,10,05,17,14,18.70
2012,10,05,17,15,18.60
2012,10,05,17,16,18.70
2012,10,05,17,17,18.70
2012,10,05,17,18,18.60
2012,10,05,17,19,18.60
2012,10,05,17,20,18.60
2012,10,05,17,21,18.60
2012,10,05,17,22,18.60
2012,10,05,17,23,18.60
2012,10,05,17,24,18.60
2012,10,05,17,25,18.60
2012,10,05,17,26,18.60
2012,10,05,17,27,18.50
2012,10,05,17,28,18.50
2012,10,05,17,29,18.50
2012,10,05,17,30,18.50
2012,10,05,17,31,18.50
2012,10,05,17,32,18.40
2012,10,05,17,33,18.40
2012,10,05,17,34,18.40
2012,10,05,17,35,18.30
2012,10,05,17,36,18.30
2012,10,05,17,37,18.20
2012,10,05,17,38,18.20
2012,10,05,17,39,18.20
2012,10,05,17,40,18.20
2012,10,05,17,41,18.10
2012,10,05,17,42,18.10
2012,10,05,17,43,18.10
2012,10,05,17,44,18.10
2012,10,05,17,45,18.10